Location: Alpha Ridge Park
(39.3209°N, 76.9128°W)
Time: 18:40:40
(UTC-04:00)

S-56A Canister/Altair - Pass Details

Date: 27 May 2019
Orbit: 633 x 2499 km, 38.9° (Epoch: 25 June)

Event Time Altitude Azimuth Distance (km) Brightness Sun altitude
Rises 23:27:02 0° 204° (SSW) 2,918 - -25.1°
Reaches altitude 10° 23:29:47 10° 185° (S) 2,082 - -25.3°
Maximum altitude 23:33:03 19° 140° (SE) 1,717 - -25.6°
Drops below altitude 10° 23:36:50 10° 97° (E) 2,476 - -25.9°
Exits shadow 23:39:51 - 82° (E) 3,478 10.8 -26.1°
Sets 23:40:31 0° 80° (E) 3,711 10.9 -26.1°
